sat.trackr.live / text

‹ back to catalog

STARLINK-31258

NORAD 58829 · 2024-017D

PAYLOAD ACTIVE UNKNOWN

§ Identity

Operator
Country
US
Launch date
2024-01-24
Launch site
AFWTR
Launch vehicle
Mass (kg)
RCS (m²)

Purposes: comms

External: N2YO · Heavens-Above · Gunter

§ Orbital elements

Epoch: 2026-05-25T03:47:19.251744Z

Period
94.11 min
Inclination
53.1593°
Eccentricity
0.0001308
Mean motion
15.30201302 rev/d
Perigee alt
474.3 km
Apogee alt
476.1 km
Semi-major
6,853.3 km
B*
9.6403e-5
RAAN
209.1464°
Arg perigee
83.8780°
Mean anomaly
276.2370°
Rev number
13,176

§ Raw data

STARLINK-312581 58829U 24017D   26145.15786171  .00002497  00000+0  96403-4 0  99972 58829  53.1593 209.1464 0001308  83.8780 276.2370 15.30201302131764

JSON: /api/v1/satellites/58829 · /tle

For live sub-satellite position, see the globe view (requires WebGL).

§ Visibility from observer

Set your observer location to see the next 7 days of passes ≥ 10°. The values pass through the URL so the page stays shareable.

No JS? Fill the form by hand. The geolocation button needs JavaScript.